DW9679 Alicante ES current weather conditions

sailwx.info

Wind from 312 at 4 knots gusting 13

Air temperature 15.6° C
Dewpoint 7.3° C

Last reported at 2020-Oct-26 08:01 UTC.
Time now 2020-Oct-26 09:12 UTC

Location: N 38°15' W 000°35'.
View on Google Maps.

See reports from other nearby stations

  
Tides and Currents Weather Stations Pressure Air Temp Water Temp Dewpoint Dewpoint Depression Visibility Wind Speed Wind Dir Waves Ship Positions
date/time (UTC)wind fromknots sea level pressurealtimeterstation pressurevisibilityair tempwater tempwave heightnotes
2020-Oct-26 08:01 312 4 gusting 13 15.6
2020-Oct-26 07:56 339 6 gusting 13 15.6
2020-Oct-26 07:51 235 6 gusting 11 16.1
2020-Oct-26 07:46 292 5 gusting 11 16.1
2020-Oct-26 07:41 315 4 gusting 10 16.1
2020-Oct-26 07:36 321 5 gusting 9 16.1
2020-Oct-26 07:31 309 4 gusting 10 16.1
2020-Oct-26 07:26 084 3 gusting 11 16.1
2020-Oct-26 07:21 051 5 gusting 11 16.1
2020-Oct-26 07:16 321 4 gusting 11 16.1
2020-Oct-26 07:11 341 3 gusting 8 16.1
2020-Oct-26 07:06 329 4 gusting 12 16.7
2020-Oct-26 07:01 326 5 gusting 12 16.7
2020-Oct-26 06:56 302 4 gusting 12 17.2
2020-Oct-26 06:51 288 3 gusting 8 17.2
2020-Oct-26 06:46 298 2 gusting 7 17.8
2020-Oct-26 06:41 341 3 gusting 9 17.8
2020-Oct-26 06:36 340 4 gusting 11 17.8
2020-Oct-26 06:31 215 1 gusting 10 17.8
2020-Oct-26 06:26 011 5 gusting 10 17.8
2020-Oct-26 06:21 318 3 gusting 10 17.8
2020-Oct-26 06:16 235 0 gusting 10 17.8
2020-Oct-26 06:06 273 2 gusting 11 18.3
2020-Oct-26 06:01 300 6 gusting 11 18.3
2020-Oct-26 05:56 255 4 gusting 10 17.8
2020-Oct-26 05:51 029 0 gusting 6 17.8
2020-Oct-26 05:46 308 1 gusting 6 17.8
2020-Oct-26 05:41 252 0 gusting 6 17.8
2020-Oct-26 05:36 262 1 gusting 3 17.8
2020-Oct-26 05:31 283 0 gusting 4 17.8
2020-Oct-26 05:26 288 1 gusting 4 17.8
2020-Oct-26 05:21 339 1 gusting 5 17.8
2020-Oct-26 05:16 280 1 gusting 7 17.8
2020-Oct-26 05:11 251 2 gusting 7 17.8
2020-Oct-26 05:06 255 1 gusting 5 17.8
2020-Oct-26 05:01 242 0 gusting 3 17.8
2020-Oct-26 04:56 288 17.8
2020-Oct-26 04:52 273 0 gusting 3 17.8
2020-Oct-26 04:46 255 0 gusting 5 17.8
2020-Oct-26 04:41 302 0 gusting 5 17.8
2020-Oct-26 04:36 212 0 gusting 7 17.8
2020-Oct-26 04:31 253 1 gusting 7 17.8
2020-Oct-26 04:26 289 1 gusting 5 17.2
2020-Oct-26 04:21 305 1 gusting 5 17.2
2020-Oct-26 04:16 270 0 gusting 5 17.2
2020-Oct-26 04:11 276 1 gusting 5 17.2
2020-Oct-26 04:06 266 0 gusting 6 17.2
2020-Oct-26 04:01 098 0 gusting 6 17.8
2020-Oct-26 03:56 239 0 gusting 3 17.8
2020-Oct-25 20:01
2020-Oct-25 19:01
2020-Oct-25 18:06
2020-Oct-25 18:02
2020-Oct-25 17:03
2020-Oct-25 16:01 162 4 21.1
2020-Oct-25 15:11
2020-Oct-25 15:06
2020-Oct-25 15:01 21.7
2020-Oct-25 14:26 134 3 21.7
2020-Oct-25 14:21 118 6 21.7
2020-Oct-25 14:16 131 4 22.2
2020-Oct-25 14:11 167 5 21.7
2020-Oct-25 14:01 193 6 22.2
2020-Oct-25 13:41 159 6 22.2
2020-Oct-25 13:36 142 3 22.2
2020-Oct-25 13:31 188 2 22.2
2020-Oct-25 13:26 260 1 22.2
2020-Oct-25 13:21 156 4 22.2
2020-Oct-25 13:16 184 5 22.2
2020-Oct-25 13:11
2020-Oct-25 13:06
2020-Oct-25 13:01
2020-Oct-25 12:56
2020-Oct-25 12:51
2020-Oct-25 12:46
2020-Oct-25 12:36
2020-Oct-25 12:31
2020-Oct-25 12:26
2020-Oct-25 12:21
2020-Oct-25 12:16
2020-Oct-25 12:11
2020-Oct-25 12:06
2020-Oct-25 12:01
2020-Oct-25 11:51
2020-Oct-25 11:46
2020-Oct-25 11:41
2020-Oct-25 11:36
2020-Oct-25 11:31
2020-Oct-25 11:26
2020-Oct-25 11:21
2020-Oct-25 11:16
2020-Oct-25 11:06
2020-Oct-25 11:01
2020-Oct-25 10:56
2020-Oct-25 10:46
2020-Oct-25 10:41
2020-Oct-25 10:36
2020-Oct-25 10:31
2020-Oct-25 10:26
2020-Oct-25 10:21
2020-Oct-25 10:16 22.2
2020-Oct-25 10:11 22.2
2020-Oct-25 10:06 22.2
2020-Oct-25 10:01 21.7
2020-Oct-25 09:56 21.7
2020-Oct-25 09:51 21.7
2020-Oct-25 09:46 21.7
2020-Oct-25 09:41 21.1
2020-Oct-25 09:36 20.6
2020-Oct-25 09:31 20.0
2020-Oct-25 09:26 20.0
2020-Oct-25 09:21 20.0
2020-Oct-25 09:16 20.0
2020-Oct-25 09:11 19.4
2020-Oct-25 09:06 18.9
2020-Oct-25 09:01 18.9
2020-Oct-25 08:56 18.9
2020-Oct-25 08:51 18.9
2020-Oct-25 08:46 18.3
2020-Oct-25 08:41 17.8
2020-Oct-25 08:36 17.8
2020-Oct-25 08:31 17.2
2020-Oct-25 08:26 17.2
2020-Oct-25 08:21 17.2
2020-Oct-25 08:16 266 16.7
2020-Oct-25 08:11 149 16.1
2020-Oct-25 08:06 274 16.1
2020-Oct-25 08:01 243 15.6
2020-Oct-25 07:56 207 15.6
2020-Oct-25 07:51 274 15.6
2020-Oct-25 07:46 271 15.6
2020-Oct-25 07:41 156 0 15.6
2020-Oct-25 07:36 122 0 15.0
2020-Oct-25 07:31 288 14.4
2020-Oct-25 07:26 263 14.4
2020-Oct-25 07:21 235 13.9
2020-Oct-25 07:16 172 13.3
2020-Oct-25 07:11 152 12.8
2020-Oct-25 07:06 203 12.2
2020-Oct-25 07:01 264 11.7
2020-Oct-25 06:56 229 11.7
2020-Oct-25 06:51 238 0 11.1
2020-Oct-25 06:46 225 10.6
2020-Oct-25 06:41 158 10.6
2020-Oct-25 06:36 142 11.1
2020-Oct-25 06:31 195 11.1
2020-Oct-25 06:26 194 11.1
2020-Oct-25 06:21 252 11.1
2020-Oct-25 06:16 240 11.1
2020-Oct-25 06:11 259 0 10.6
2020-Oct-25 06:06 203 10.6
2020-Oct-25 05:56 236 10.6
2020-Oct-25 05:51 236 10.6
2020-Oct-25 05:46 232 10.6
2020-Oct-25 05:41 235 10.6
2020-Oct-25 05:36 262 10.6
2020-Oct-25 05:31 280 10.6
2020-Oct-25 05:26 147 0 10.6
2020-Oct-25 05:21 259 10.6
2020-Oct-25 05:16 259 10.6
2020-Oct-25 05:11 252 10.6
2020-Oct-25 05:06 204 10.6
2020-Oct-25 05:01 204 11.1
2020-Oct-25 04:56 239 11.1
2020-Oct-25 04:51 239 11.1
2020-Oct-25 04:46 239 11.1
2020-Oct-25 04:41 252 11.1
2020-Oct-25 04:36 262 11.1
2020-Oct-25 04:31 183 11.7
2020-Oct-25 04:26 166 11.7
2020-Oct-25 04:21 166 11.7
2020-Oct-25 04:16 254 11.7
2020-Oct-25 04:11 250 11.7
2020-Oct-25 04:06 243 12.2
2020-Oct-25 04:01 252 12.2
2020-Oct-25 03:56 261 11.7
2020-Oct-25 03:51 239 11.7
2020-Oct-25 03:46 252 11.7
2020-Oct-25 03:41 251 11.7
2020-Oct-25 03:36 252 12.2
2020-Oct-25 03:31 252 12.2
2020-Oct-25 03:26 252 12.2
2020-Oct-25 03:21 252 12.2
2020-Oct-25 03:16 252 12.8
2020-Oct-25 03:11 264 12.8
2020-Oct-25 03:06 264 12.8
2020-Oct-25 03:01 264 13.3
2020-Oct-25 02:56 264 13.3
2020-Oct-25 02:51 258 13.9
2020-Oct-25 02:46 262 14.4
2020-Oct-25 02:41 203 15.0
2020-Oct-25 02:36 235 15.0
2020-Oct-25 02:31 256 15.0
2020-Oct-25 02:26 293 15.0
2020-Oct-25 02:21 253 15.0
2020-Oct-25 02:16 274 15.0
2020-Oct-25 02:11 309 14.4
2020-Oct-25 02:06 333 14.4
2020-Oct-25 02:01 330 0 gusting 1 14.4
2020-Oct-25 01:56 317 14.4
2020-Oct-25 01:51 326 1 gusting 2 14.4
2020-Oct-25 01:46 311 0 gusting 2 14.4
2020-Oct-25 01:41 349 0 gusting 1 13.9
2020-Oct-25 01:36 309 0 gusting 1 13.9
2020-Oct-25 01:31 309 13.9
2020-Oct-25 01:26 257 14.4
2020-Oct-25 01:21 259 14.4
2020-Oct-25 01:16 256 14.4
2020-Oct-25 01:11 240 14.4
2020-Oct-25 01:06 253 13.9
2020-Oct-25 01:01 242 13.3
2020-Oct-25 00:56 253 13.3
2020-Oct-25 00:51 243 13.3
2020-Oct-25 00:46 256 12.8
2020-Oct-25 00:41 245 12.8
2020-Oct-25 00:36 135 12.8
2020-Oct-25 00:31 135 12.8
2020-Oct-25 00:26 238 12.8
2020-Oct-25 00:21 204 12.8
2020-Oct-25 00:16 205 13.3
2020-Oct-25 00:11 204 13.3
2020-Oct-25 00:06 204 13.9
2020-Oct-24 23:56 257 13.9
2020-Oct-24 23:51 256 13.9
2020-Oct-24 23:41 238 13.9
2020-Oct-24 23:36 236 13.9
2020-Oct-24 23:31 259 13.9
2020-Oct-24 23:26 249 13.3
2020-Oct-24 23:21 170 13.9
2020-Oct-24 23:16 158 13.9
2020-Oct-24 23:11 158 14.4
2020-Oct-24 23:06 158 14.4
2020-Oct-24 23:01 239 13.9
2020-Oct-24 22:56 245 13.9
2020-Oct-24 22:51 250 13.3
2020-Oct-24 22:46 246 13.3
2020-Oct-24 22:41 246 13.3
2020-Oct-24 22:36 246 13.3
2020-Oct-24 22:31 246 13.3
2020-Oct-24 22:21 246 13.9
2020-Oct-24 22:16 246 13.9
2020-Oct-24 22:11 246 13.9
2020-Oct-24 22:06 250 13.9
2020-Oct-24 22:01 250 14.4
2020-Oct-24 21:56 250 14.4
2020-Oct-24 21:51 250 14.4
2020-Oct-24 21:46 255 14.4
2020-Oct-24 21:41 255 14.4
2020-Oct-24 21:36 255 14.4
2020-Oct-24 21:31 256 14.4
2020-Oct-24 21:21 256 14.4
2020-Oct-24 21:16 256 15.0
2020-Oct-24 21:11 256 15.0
2020-Oct-24 21:06 256 15.0
2020-Oct-24 21:01 261 15.0
2020-Oct-24 20:56 232 14.4
2020-Oct-24 20:51 229 14.4
2020-Oct-24 20:46 214 15.0
2020-Oct-24 20:41 214 15.0
2020-Oct-24 20:36 214 15.0
2020-Oct-24 20:31 214 15.0
2020-Oct-24 20:26 214 15.0
2020-Oct-24 20:21 259 15.0
2020-Oct-24 20:16 259 15.0
2020-Oct-24 20:01 259 15.0
2020-Oct-24 19:56 259 15.0
2020-Oct-24 19:51 259 15.6
2020-Oct-24 19:46 258 15.6
2020-Oct-24 19:41 259 16.1
2020-Oct-24 19:36 258 16.1
2020-Oct-24 19:31 259 16.1
2020-Oct-24 19:26 259 16.1
2020-Oct-24 19:21 258 16.7
2020-Oct-24 19:16 259 16.7
2020-Oct-24 19:11 258 16.7
2020-Oct-24 19:06 249 16.7
2020-Oct-24 19:01 295 16.7
2020-Oct-24 18:56 295 16.7
2020-Oct-24 18:51 295 17.2
2020-Oct-24 18:46 295 17.2
2020-Oct-24 18:41 295 17.8
2020-Oct-24 18:36 295 17.8
2020-Oct-24 18:31 295 17.8
2020-Oct-24 18:26 295 18.3
2020-Oct-24 18:21 243 18.3
2020-Oct-24 18:16 262 18.3
2020-Oct-24 18:11 257 18.3
2020-Oct-24 18:06 235 18.3
2020-Oct-24 18:01 243 18.9
2020-Oct-24 17:56 245 0 gusting 6 18.9
2020-Oct-24 17:46 194 0 gusting 5 18.9
2020-Oct-24 17:41 090 0 gusting 7 18.9
2020-Oct-24 17:36 134 1 gusting 7 18.9
2020-Oct-24 17:31 276 1 gusting 6 19.4
2020-Oct-24 17:26 165 1 gusting 9 19.4
2020-Oct-24 17:21 172 2 gusting 10 19.4
2020-Oct-24 17:16 222 2 gusting 10 19.4
2020-Oct-24 17:11 167 3 gusting 8 19.4
2020-Oct-24 17:06 179 2 gusting 10 19.4
2020-Oct-24 17:01 089 3 gusting 10 19.4
2020-Oct-24 16:56 169 3 gusting 11 20.0
2020-Oct-24 16:51 136 2 gusting 11 20.0
2020-Oct-24 16:46 257 5 gusting 11 20.0
2020-Oct-24 16:41 256 5 gusting 11 20.0
2020-Oct-24 16:36 205 5 gusting 10 20.6
2020-Oct-24 16:31 226 5 gusting 11 20.6
2020-Oct-24 16:26 172 6 gusting 11 20.6
2020-Oct-24 16:21 190 3 gusting 14 20.6
2020-Oct-24 16:16 188 5 gusting 14 20.6
2020-Oct-24 16:11 179 5 gusting 13 20.6
2020-Oct-24 16:06 150 6 gusting 13 21.1
2020-Oct-24 16:01 136 6 gusting 13 21.1
2020-Oct-24 15:56 148 5 gusting 13 21.1
2020-Oct-24 15:51 111 4 gusting 13 21.1
2020-Oct-24 15:46 180 5 gusting 14 21.1
2020-Oct-24 15:41 211 6 gusting 14 21.1
2020-Oct-24 15:31 144 4 gusting 17 21.7
2020-Oct-24 15:26 253 8 gusting 15 21.7
2020-Oct-24 15:21 174 6 gusting 14 21.7
2020-Oct-24 15:17 165 6 gusting 13 21.7
2020-Oct-24 15:12 152 4 gusting 12 22.2
2020-Oct-24 15:06 165 4 gusting 12 22.2
2020-Oct-24 15:01 177 5 gusting 12 22.2
2020-Oct-24 14:56 293 2 gusting 11 22.2
2020-Oct-24 14:51 153 6 gusting 13 22.2
2020-Oct-24 14:46 130 6 gusting 13 22.2
2020-Oct-24 14:41 162 6 gusting 12 22.8
2020-Oct-24 14:36 145 4 gusting 13 22.8
2020-Oct-24 14:31 167 5 gusting 14 22.8
2020-Oct-24 14:26 185 3 gusting 14 22.8
2020-Oct-24 14:21 152 5 gusting 13 23.3
2020-Oct-24 14:16 198 5 gusting 9 23.9
2020-Oct-24 14:11 165 1 gusting 7 23.9
2020-Oct-24 14:06 253 3 gusting 7 24.4
2020-Oct-24 14:01 243 2 gusting 6 24.4
2020-Oct-24 13:56 217 1 gusting 5 24.4
2020-Oct-24 13:51 143 1 gusting 6 24.4
2020-Oct-24 13:41 260 0 gusting 6 24.4
2020-Oct-24 13:36 252 1 gusting 6 24.4
2020-Oct-24 13:31 127 2 gusting 5 24.4
2020-Oct-24 13:26 167 1 gusting 7 24.4
2020-Oct-24 13:21 276 2 gusting 7 24.4
2020-Oct-24 13:16 229 2 gusting 6 24.4
2020-Oct-24 13:11 255 1 gusting 7 24.4
2020-Oct-24 13:06 254 0 gusting 6 24.4
2020-Oct-24 13:01 277 2 gusting 8 24.4
2020-Oct-24 12:56 235 2 gusting 8 23.9
2020-Oct-24 12:51 263 2 gusting 6 24.4
2020-Oct-24 12:46 193 1 gusting 6 24.4
2020-Oct-24 12:41 281 1 gusting 6 23.9
2020-Oct-24 12:36 262 2 gusting 6 23.9
2020-Oct-24 12:31 284 1 gusting 7 23.9
2020-Oct-24 12:26 273 3 gusting 7 23.9
2020-Oct-24 12:21 262 2 gusting 7 23.9
2020-Oct-24 12:16 256 2 gusting 8 23.9
2020-Oct-24 12:11 294 2 gusting 8 23.9
2020-Oct-24 12:06 271 1 gusting 8 23.9
2020-Oct-24 12:01 252 2 gusting 7 23.9
2020-Oct-24 11:56 119 0 gusting 4 23.9
2020-Oct-24 11:51 005 23.3
2020-Oct-24 11:46 238 3 gusting 7 23.3
2020-Oct-24 11:41 250 1 gusting 6 23.9
2020-Oct-24 11:36 256 1 gusting 6 23.9
2020-Oct-24 11:31 138 0 gusting 5 23.3
2020-Oct-24 11:26 078 2 gusting 5 23.3
2020-Oct-24 11:21 142 0 gusting 4 23.3
2020-Oct-24 11:16 314 0 gusting 6 22.8
2020-Oct-24 11:11 146 1 gusting 6 22.8
2020-Oct-24 11:06 252 3 gusting 6 22.8
2020-Oct-24 11:01 287 0 gusting 6 22.8
2020-Oct-24 10:56 218 22.8
2020-Oct-24 10:51 242 1 gusting 5 22.8
2020-Oct-24 10:46 323 2 gusting 5 22.8
2020-Oct-24 10:41 257 1 gusting 4 22.8
2020-Oct-24 10:36 218 0 gusting 3 22.2
2020-Oct-24 10:31 008 0 gusting 5 22.2
2020-Oct-24 10:26 229 1 gusting 6 22.2
2020-Oct-24 10:21 337 1 gusting 6 21.7
2020-Oct-24 10:16 245 1 gusting 6 21.7
2020-Oct-24 10:11 296 2 gusting 6 21.7
2020-Oct-24 10:06 212 2 gusting 6 21.1
2020-Oct-24 10:01 313 2 gusting 6 21.1
2020-Oct-24 09:56 302 1 gusting 6 21.1
2020-Oct-24 09:51 323 2 gusting 6 21.1
2020-Oct-24 09:46 270 0 gusting 6 21.1
2020-Oct-24 09:41 325 0 gusting 4 20.6
2020-Oct-24 09:36 054 0 gusting 6 20.6
2020-Oct-24 09:31 084 2 gusting 6 20.6
2020-Oct-24 09:26 225 0 gusting 6 20.0
2020-Oct-24 09:21 229 1 gusting 7 20.0
2020-Oct-24 09:17 267 2 gusting 7 20.0
2020-Oct-24 09:11 293 1 gusting 6 20.0
2020-Oct-24 09:06 259 1 gusting 6 20.0
2020-Oct-24 09:01 255 1 gusting 6 19.4